CZ-6A DEB

Satellite information

Favourite Embed

Satellite Type and Status

DEBRISIN ORBIT

Key statistics

Satellite CZ-6A DEB at a glance.

Uptime

333

Days in orbit

Revolutions

≈ 14.5

Per day

Orbit

LEO

Low Earth Orbit

Inclination

88.6

Latest

Satellite identification and parameters

Extended collection of information and parameters for CZ-6A DEB.

Object identification

Identified? True

Debris? True

Object name: CZ-6A DEB

International designator: 2024-140MT

Object number (NORAD): 61077

Object ID (CCSDS): 61077

Country: PEOPLES REPUBLIC OF CHINA (PRC)

Current information (Y/N): Y

RCS size: SMALL

Orbital parameters

Period: 99.429 minutes

Inclination: 88.5961 deg

SMA: 7109.447 km

Apoapsis: 786.011 km

Periapsis: 676.612 km

RAAN: 295.6924 deg

Eccentricy: 0.0076939

Argument of periapsis: 348.3469 deg

Mean anomaly: 11.5952 deg

Mean motion: 14.48268361 rev/day

Mean motion (dot): 0.0000146 rev/day2

B* drag term: 0.00037244 1/REarth

Two-line elements (TLE)

Creation date: July 4, 2025, 6:39 p.m.

Reference frame: TEME

Reference center: EARTH

Epoch: July 4, 2025, 6:59 a.m. UTC

TLE line 0: 0 CZ-6A DEB

TLE line 1: 1 61077U 24140MT 25185.29115961 .00001460 00000-0 37244-3 0 9991

TLE line 2: 2 61077 88.5961 295.6924 0076939 348.3469 11.5952 14.48268361 45092

Live tracking on map

Real-time ground track for satellite CZ-6A DEB.

In-orbit conjunctions

A list of the most updated potential collisions computed for object CZ-6A DEB.

Target Orbit TCA Probability of collision Miss distance Type
COSMOS 1624 LEO 2025-06-16 13:53:09 0.0004269612 476.0 (m) PAYLOAD
COSMOS 407 LEO 2025-05-22 20:34:15 0.0005328318 838.0 (m) PAYLOAD
COSMOS 2251 DEB LEO 2025-01-22 10:20:46 0.0002257237 456.0 (m) DEBRIS
ORBCOMM FM 3 SSO 2024-12-29 05:57:19 0.0001749833 676.0 (m) PAYLOAD
COSMOS 1992 LEO 2024-12-24 18:11:48 0.0001433178 908.0 (m) PAYLOAD

Associated space launch

18 Low Earth Orbit communication satellites with Ku, Q and V band payloads for the G60 constellation operated by Shanghai Spacecom Satellite Technology (SSST) with funding backed by the Shanghai local government. Initial constellation will consist of 1296 satellites by 2027 with long term plans to expand it to 12000 satellites.

CZ-6A DEB was lifted into orbit during the mission ‘Long March 6A | G60 Polar Group 01’, on board a Long March 6A space rocket.

The launch took place on Aug. 6, 2024, 6:42 a.m. from Launch Complex 9A.

For more information about the launch, click the button.

Launch to space Long March 6A | G60 Polar Group 01
Long March 6A | G60 Polar Group 01

Agency: N/A

Status: Launch Successful

Launch date: Aug. 6, 2024, 6:42 a.m. UTC

Rocket: Long March 6A

Launch pad: Launch Complex 9A

Location: Taiyuan Satellite Launch Center, People's Republic of China

...

Latest news about this satellite

News about space launch
Brightness of first Chinese broadband constellation satellites alarms astronomers

The first satellites of a Chinese broadband constellation are significantly brighter than those of Western systems, posing a new challenge for astronomers.

News about space launch
Chinese rocket stage breaks up into cloud of more than 700 pieces of space debris

HELSINKI — A Chinese Long March 6A rocket’s upper stage has fragmented into a cloud of over 700 pieces of space debris, adding to concerns about long-term orbital safety. China […]

News about space launch
China's Thousand Sails Megaconstellation Kicks Off with Dangerous Debris Field

China's Thousand Sails Megaconstellation Kicks Off with Dangerous Debris Field


Newsletter sign-up

Weekly statistics, charts and insights to help you stay on top of the space industry.